Location: Newark
(42.7133°N, 87.7910°W)
Time: 13:27:24
(UTC+00:00)

Vanguard 1 - Pass Details

Date: 28 October 2019
Orbit: 652 x 3831 km, 34.2° (Epoch: 20 November)

Event Time Altitude Azimuth Distance (km) Brightness Sun altitude
Rises 01:03:57 0° 259° (W) 3,669 14.2 -25.0°
Reaches altitude 10° 01:06:08 10° 254° (WSW) 2,955 13.4 -25.4°
Maximum altitude 01:13:11 51° 180° (S) 1,920 11.3 -26.7°
Enters shadow 01:17:09 37° 131° (SE) 2,659 11.8 -27.4°
